Flag for Austria Weather past 2 weeks in Bad Vöslau, Lower Austria, Austria

Now
66 °F

Scattered clouds.


Feels Like: 66 °F
Forecast: 56 / 76 °F
Wind: 8 mph from Northwest

Location: Eisenstadt

Current Time: Jul 23, 2014 at 8:02:31 AM

Latest Report: Jul 23, 2014 at 6:00 AM


Visibility: 13 mi

Pressure: 29.84 "Hg

Humidity: 81%

Dew point: 60 °F

Location of Bad VöslauLocation

Historic Weather in Bad Vöslau — Graph

°F

Bad Vöslau temperature yesterday

Maximum temperature yesterday: 75 °F (at 2:00 PM)
Minimum temperature yesterday: 67 °F (at 5:00 AM)
Average temperature yesterday: 70 °F

Past Weeks' High & Low Weather Summary

 TemperatureHumidityPressure
High91 °F (Jul 20, 4:00 PM)95% (Jul 14, 3:00 AM)30.09 "Hg (Jul 14, 3:00 AM)
Low55 °F (Jul 10, 2:00 AM)32% (Jul 17, 5:00 PM)29.58 "Hg (Jul 8, 7:00 PM)
Average72 °F65%29.87 "Hg
* Reported Jul 8 6:00 AM — Jul 23 6:00 AM, Bad Vöslau, Weather by CustomWeather, © 2014

Note: Actual official high and low records may vary slightly from our data, if they occured in-between our weather recording intervals... More about our weather records

Advertising

Bad Vöslau weather history for previous 24 hours

 ConditionsComfort  
Time TempWeatherWind HumidityBarometerVisibility
6:00 AM
Jul 23
66 °FScattered clouds.8 mph81%29.84 "Hg12 mi
5:00 AM66 °FClear.9 mph82%29.83 "Hg12 mi
4:00 AM66 °FOvercast.7 mph86%29.83 "Hg9 mi
3:00 AM67 °FMild.6 mph90%29.83 "HgN/A
2:00 AM68 °FOvercast.5 mph90%29.84 "Hg6 mi
6:00 PM
Jul 22
67 °FMild.5 mph93%29.80 "HgN/A
5:00 PM67 °FRain. Overcast.5 mph93%29.79 "Hg5 mi
4:00 PM67 °FFog.6 mph91%29.80 "HgN/A
3:00 PM73 °FMild.5 mph75%29.78 "HgN/A
2:00 PM75 °FOvercast.5 mph65%29.78 "Hg9 mi
1:00 PM74 °FMild.6 mph69%29.79 "HgN/A
12:00 PM73 °FMild.6 mph71%29.79 "HgN/A
11:00 AM71 °FOvercast.6 mph73%29.79 "Hg9 mi
10:00 AM71 °FMild.3 mph72%29.78 "HgN/A
9:00 AM69 °FMild.5 mph75%29.78 "HgN/A
8:00 AM69 °FOvercast.5 mph74%29.76 "Hg9 mi
Weather by CustomWeather, © 2014

See weather overviewHow to use our weather pages